When you browse on this site, cookies collect data to enhance your experience and personalize the content and advertising you see.
Visit our Privacy Policy to learn more. By continuing to use the site, you agree to this use of cookies and data.
  • In Hungary
  • List of Countries
  • For 7 days
  • Water Temperature
  • Satellite Maps
  • Weather Map
  • News
  • Weather Widgets
  • user-avatar
    Login

    Hourly Weather Vanadzor

    Today, 20 April, Saturday

    Time Temperature Precipitation Wind Pressure Humidity
    00:00 +1°C° 0.9 mm 2 mps 629 mmHg 97%
    01:00 -1°C° 0.7 mm 2 mps 629 mmHg 97%
    02:00 -1°C° 0.7 mm 2 mps 629 mmHg 97%
    03:00 -2°C° 0 mm 3 mps 628 mmHg 98%
    04:00 -2°C° 0.6 mm 2 mps 629 mmHg 97%
    05:00 -2°C° 0.6 mm 2 mps 629 mmHg 96%
    06:00 -2°C° 0.6 mm 2 mps 629 mmHg 95%
    07:00 -1°C° 0.5 mm 2 mps 629 mmHg 94%
    08:00 -1°C° 0.5 mm 2 mps 630 mmHg 93%
    09:00 +1°C° 0.5 mm 2 mps 630 mmHg 92%
    10:00 +1°C° 0.3 mm 2 mps 630 mmHg 91%
    11:00 +2°C° 0.3 mm 2 mps 630 mmHg 90%
    12:00 +2°C° 0.3 mm 2 mps 630 mmHg 89%
    13:00 +3°C° 0.1 mm 2 mps 630 mmHg 88%
    14:00 +3°C° 0.1 mm 2 mps 630 mmHg 87%
    15:00 +3°C° 0.1 mm 2 mps 630 mmHg 86%
    16:00 +3°C° 0.1 mm 2 mps 630 mmHg 87%
    17:00 +3°C° 0.1 mm 2 mps 630 mmHg 89%
    18:00 +2°C° 0.1 mm 2 mps 630 mmHg 90%
    19:00 +2°C° 0 mm 2 mps 631 mmHg 92%
    20:00 +2°C° 0 mm 1 mps 631 mmHg 94%
    21:00 +1°C° 0 mm 1 mps 631 mmHg 96%
    22:00 0°C° 0 mm 1 mps 631 mmHg 96%
    23:00 0°C° 0 mm 1 mps 631 mmHg 96%

    Tomorrow, 21 April, Sunday

    Time Temperature Precipitation Wind Pressure Humidity
    00:00 0°C° 0 mm 1 mps 631 mmHg 96%
    01:00 0°C° 0 mm 1 mps 631 mmHg 95%
    02:00 0°C° 0 mm 1 mps 631 mmHg 95%
    03:00 0°C° 0 mm 1 mps 631 mmHg 95%
    04:00 0°C° 0.1 mm 1 mps 631 mmHg 94%
    05:00 0°C° 0.1 mm 1 mps 631 mmHg 94%
    06:00 -2°C° 0.1 mm 2 mps 632 mmHg 94%
    07:00 -1°C° 0.1 mm 2 mps 632 mmHg 91%
    08:00 +1°C° 0.1 mm 2 mps 632 mmHg 89%
    09:00 +2°C° 0.1 mm 2 mps 632 mmHg 87%
    10:00 +2°C° 0.1 mm 2 mps 632 mmHg 86%
    11:00 +2°C° 0.1 mm 3 mps 632 mmHg 86%
    12:00 +2°C° 0.1 mm 3 mps 631 mmHg 86%
    13:00 +3°C° 0.2 mm 3 mps 631 mmHg 86%
    14:00 +3°C° 0.2 mm 3 mps 631 mmHg 87%
    15:00 +3°C° 0.2 mm 3 mps 631 mmHg 88%
    16:00 +2°C° 0.2 mm 3 mps 630 mmHg 89%
    17:00 +2°C° 0.2 mm 3 mps 630 mmHg 91%
    18:00 +1°C° 0.2 mm 3 mps 630 mmHg 92%
    19:00 +1°C° 0.4 mm 2 mps 631 mmHg 93%
    20:00 +1°C° 0.4 mm 2 mps 631 mmHg 94%
    21:00 -1°C° 0.4 mm 2 mps 632 mmHg 95%
    22:00 -1°C° 0.3 mm 2 mps 632 mmHg 95%
    23:00 -1°C° 0.3 mm 2 mps 632 mmHg 95%

    Day after tomorrow, 22 April, Monday

    Time Temperature Precipitation Wind Pressure Humidity
    00:00 -1°C° 0.3 mm 2 mps 632 mmHg 95%
    01:00 -2°C° 0.1 mm 2 mps 632 mmHg 95%
    02:00 -2°C° 0.1 mm 2 mps 632 mmHg 95%
    03:00 -2°C° 0.1 mm 2 mps 632 mmHg 95%
    04:00 -2°C° 0.1 mm 2 mps 631 mmHg 95%
    05:00 -2°C° 0.1 mm 2 mps 631 mmHg 95%
    06:00 -2°C° 0.1 mm 2 mps 631 mmHg 94%
    07:00 -1°C° 0.1 mm 3 mps 631 mmHg 93%
    08:00 0°C° 0.1 mm 3 mps 631 mmHg 91%
    09:00 0°C° 0.1 mm 3 mps 631 mmHg 89%
    10:00 +1°C° 0.2 mm 3 mps 631 mmHg 89%
    11:00 +1°C° 0.2 mm 3 mps 631 mmHg 88%
    12:00 +1°C° 0.2 mm 3 mps 630 mmHg 88%
    13:00 +1°C° 0.1 mm 3 mps 630 mmHg 88%
    14:00 +1°C° 0.1 mm 3 mps 630 mmHg 88%
    15:00 +1°C° 0.1 mm 4 mps 630 mmHg 88%
    16:00 +1°C° 0.2 mm 3 mps 630 mmHg 89%
    17:00 +1°C° 0.2 mm 3 mps 631 mmHg 90%
    18:00 +1°C° 0.2 mm 3 mps 631 mmHg 92%
    19:00 0°C° 0.2 mm 3 mps 632 mmHg 92%
    20:00 +1°C° 0.2 mm 2 mps 632 mmHg 93%
    21:00 -1°C° 0.2 mm 2 mps 633 mmHg 94%
    22:00 -1°C° 0.3 mm 2 mps 633 mmHg 94%
    23:00 -1°C° 0.3 mm 2 mps 633 mmHg 95%

    23 April, Tuesday

    Time Temperature Precipitation Wind Pressure Humidity
    00:00 -1°C° 0.3 mm 2 mps 634 mmHg 95%
    01:00 -1°C° 0.2 mm 2 mps 634 mmHg 94%
    02:00 0°C° 0.2 mm 1 mps 634 mmHg 94%
    03:00 0°C° 0.2 mm 1 mps 634 mmHg 94%
    04:00 0°C° 0.1 mm 1 mps 634 mmHg 93%
    05:00 0°C° 0.1 mm 1 mps 634 mmHg 92%
    06:00 0°C° 0.1 mm 1 mps 635 mmHg 91%
    07:00 +2°C° 0 mm 1 mps 635 mmHg 88%
    08:00 +3°C° 0 mm 1 mps 636 mmHg 85%
    09:00 +4°C° 0 mm 1 mps 636 mmHg 82%
    10:00 +4°C° 0.1 mm 2 mps 636 mmHg 81%
    11:00 +4°C° 0.1 mm 2 mps 636 mmHg 80%
    12:00 +5°C° 0.1 mm 2 mps 636 mmHg 79%
    13:00 +5°C° 0.2 mm 2 mps 636 mmHg 79%
    14:00 +6°C° 0.2 mm 2 mps 636 mmHg 79%
    15:00 +6°C° 0.2 mm 2 mps 636 mmHg 78%
    16:00 +5°C° 0.2 mm 2 mps 636 mmHg 81%
    17:00 +5°C° 0.2 mm 2 mps 636 mmHg 84%
    18:00 +5°C° 0.2 mm 1 mps 636 mmHg 86%
    19:00 +5°C° 0.1 mm 1 mps 637 mmHg 88%
    20:00 +4°C° 0.1 mm 1 mps 637 mmHg 90%
    21:00 +3°C° 0.1 mm 1 mps 637 mmHg 92%
    22:00 +2°C° 0.1 mm 1 mps 637 mmHg 93%
    23:00 +2°C° 0.1 mm 1 mps 637 mmHg 94%

    24 April, Wednesday

    Time Temperature Precipitation Wind Pressure Humidity
    00:00 +2°C° 0.1 mm 1 mps 638 mmHg 94%
    01:00 +1°C° 0 mm 1 mps 638 mmHg 94%
    02:00 +1°C° 0 mm 1 mps 638 mmHg 94%
    03:00 +1°C° 0 mm 1 mps 638 mmHg 94%
    04:00 +1°C° 0 mm 1 mps 638 mmHg 92%
    05:00 +1°C° 0 mm 1 mps 638 mmHg 91%
    06:00 +1°C° 0 mm 1 mps 638 mmHg 89%
    07:00 +2°C° 0 mm 1 mps 638 mmHg 85%
    08:00 +4°C° 0 mm 1 mps 639 mmHg 80%
    09:00 +5°C° 0 mm 1 mps 639 mmHg 75%
    10:00 +6°C° 0.1 mm 1 mps 638 mmHg 76%
    11:00 +6°C° 0.1 mm 1 mps 638 mmHg 76%
    12:00 +6°C° 0.1 mm 2 mps 638 mmHg 76%
    13:00 +6°C° 0.2 mm 2 mps 638 mmHg 77%
    14:00 +6°C° 0.2 mm 2 mps 637 mmHg 77%
    15:00 +6°C° 0.2 mm 2 mps 637 mmHg 78%
    16:00 +6°C° 0.3 mm 2 mps 637 mmHg 81%
    17:00 +5°C° 0.3 mm 2 mps 637 mmHg 85%
    18:00 +4°C° 0.3 mm 2 mps 637 mmHg 89%
    19:00 +4°C° 0.4 mm 2 mps 637 mmHg 91%
    20:00 +3°C° 0.4 mm 2 mps 638 mmHg 94%
    21:00 +4°C° 0.4 mm 1 mps 638 mmHg 96%
    22:00 +3°C° 0.4 mm 1 mps 638 mmHg 96%
    23:00 +3°C° 0.4 mm 1 mps 639 mmHg 97%

    25 April, Thursday

    Time Temperature Precipitation Wind Pressure Humidity
    00:00 +2°C° 0.4 mm 2 mps 639 mmHg 97%
    01:00 +2°C° 0.2 mm 1 mps 638 mmHg 97%
    02:00 +2°C° 0.2 mm 1 mps 638 mmHg 97%
    03:00 +2°C° 0.2 mm 1 mps 638 mmHg 97%
    04:00 +2°C° 0 mm 1 mps 638 mmHg 96%
    05:00 +1°C° 0 mm 1 mps 638 mmHg 95%
    06:00 +1°C° 0 mm 1 mps 639 mmHg 94%
    07:00 +3°C° 0 mm 1 mps 639 mmHg 89%
    08:00 +4°C° 0 mm 1 mps 639 mmHg 84%
    09:00 +5°C° 0 mm 1 mps 639 mmHg 79%
    10:00 +6°C° 0 mm 1 mps 639 mmHg 76%
    11:00 +7°C° 0 mm 1 mps 638 mmHg 74%
    12:00 +7°C° 0 mm 2 mps 638 mmHg 71%
    13:00 +7°C° 0.2 mm 2 mps 638 mmHg 71%
    14:00 +7°C° 0.2 mm 2 mps 638 mmHg 70%
    15:00 +8°C° 0.2 mm 2 mps 637 mmHg 70%
    16:00 +7°C° 0.2 mm 2 mps 637 mmHg 73%
    17:00 +6°C° 0.2 mm 2 mps 637 mmHg 77%
    18:00 +6°C° 0.2 mm 2 mps 637 mmHg 81%
    19:00 +6°C° 0 mm 1 mps 637 mmHg 84%
    20:00 +4°C° 0 mm 1 mps 638 mmHg 88%
    21:00 +3°C° 0 mm 1 mps 638 mmHg 91%
    22:00 +3°C° 0 mm 1 mps 638 mmHg 92%
    23:00 +2°C° 0 mm 1 mps 638 mmHg 92%
    Show more